timestamp,wind_dir_avg,wind_spd_avg,wind_spd_max_dir,wind_spd_gust,battery_voltage,lat,long
2022-02-02 00:04:01+00:00,343.0,9.01,332.0,11.22,12.49,47.59359,-54.27349
2022-02-02 00:14:00+00:00,350.0,8.4,354.0,10.01,12.41,47.59359,-54.27349
2022-02-02 00:24:00+00:00,356.0,6.6,352.0,8.08,12.41,47.59359,-54.27349
2022-02-02 00:34:00+00:00,330.0,7.19,316.0,9.15,12.41,47.59359,-54.27349
2022-02-02 00:44:00+00:00,339.0,6.82,332.0,8.02,12.41,47.59359,-54.27349
2022-02-02 00:54:00+00:00,349.0,7.7,353.0,9.74,12.41,47.59359,-54.27349
2022-02-02 01:04:00+00:00,326.0,10.69,315.0,13.34,12.41,47.59359,-54.27349
2022-02-02 01:14:01+00:00,346.0,9.16,330.0,11.28,12.41,47.59359,-54.27349
2022-02-02 01:24:01+00:00,321.0,9.28,313.0,13.08,12.41,47.59359,-54.27349
2022-02-02 01:34:01+00:00,332.0,9.99,308.0,12.41,12.41,47.59359,-54.27349
2022-02-02 01:44:01+00:00,343.0,9.58,343.0,11.55,12.41,47.59359,-54.27349
2022-02-02 01:54:01+00:00,344.0,9.79,317.0,12.34,12.41,47.59359,-54.27349
2022-02-02 02:04:01+00:00,328.0,9.69,314.0,12.85,12.41,47.59359,-54.27349
2022-02-02 02:14:00+00:00,320.0,12.35,320.0,14.27,12.41,47.59359,-54.27349
2022-02-02 02:24:00+00:00,338.0,10.43,316.0,13.84,12.41,47.59359,-54.27349
2022-02-02 02:34:00+00:00,340.0,10.72,328.0,13.55,12.41,47.59359,-54.27349
2022-02-02 02:44:00+00:00,342.0,9.13,321.0,11.22,12.41,47.59359,-54.27349
2022-02-02 02:54:00+00:00,355.0,7.96,6.0,9.99,12.41,47.59359,-54.27349
2022-02-02 03:04:00+00:00,355.0,8.4,0.0,9.95,12.41,47.59359,-54.27349
2022-02-02 03:14:01+00:00,346.0,9.52,343.0,11.25,12.41,47.59359,-54.27349
2022-02-02 03:24:01+00:00,336.0,9.28,345.0,11.78,12.41,47.59359,-54.27349
2022-02-02 03:34:01+00:00,340.0,7.94,330.0,9.52,12.41,47.59359,-54.27349
2022-02-02 03:44:01+00:00,341.0,9.12,344.0,10.64,12.41,47.59359,-54.27349
2022-02-02 03:54:01+00:00,344.0,8.23,349.0,11.76,12.41,47.59359,-54.27349
2022-02-02 04:04:01+00:00,343.0,8.98,347.0,11.5,12.41,47.59359,-54.27349
2022-02-02 04:14:01+00:00,355.0,8.57,351.0,10.48,12.33,47.59359,-54.27349
2022-02-02 04:24:01+00:00,354.0,7.63,356.0,9.47,12.33,47.59359,-54.27349
2022-02-02 04:34:01+00:00,355.0,6.58,355.0,7.86,12.33,47.59359,-54.27349
2022-02-02 04:44:01+00:00,355.0,7.84,344.0,9.72,12.33,47.59359,-54.27349
2022-02-02 04:54:01+00:00,356.0,6.19,356.0,8.39,12.33,47.59359,-54.27349
2022-02-02 05:04:01+00:00,352.0,7.11,345.0,8.27,12.33,47.59359,-54.27349
2022-02-02 05:14:00+00:00,346.0,8.05,346.0,9.41,12.33,47.59359,-54.27349
2022-02-02 05:24:00+00:00,347.0,8.04,342.0,9.1,12.33,47.59359,-54.27349
2022-02-02 05:34:00+00:00,357.0,6.78,358.0,9.26,12.33,47.59359,-54.27349
2022-02-02 05:44:00+00:00,357.0,6.26,12.0,7.52,12.33,47.59359,-54.27349
2022-02-02 05:54:00+00:00,348.0,7.46,351.0,8.93,12.33,47.59359,-54.27349
2022-02-02 06:04:00+00:00,343.0,8.63,347.0,10.0,12.33,47.59359,-54.27349
2022-02-02 06:14:00+00:00,328.0,7.42,308.0,10.32,12.33,47.59359,-54.27349
2022-02-02 06:24:00+00:00,330.0,6.48,327.0,7.54,12.33,47.59359,-54.27349
2022-02-02 06:34:00+00:00,340.0,7.13,343.0,8.53,12.33,47.59359,-54.27349
2022-02-02 06:44:00+00:00,341.0,5.69,337.0,8.37,12.33,47.59359,-54.27349
2022-02-02 06:54:00+00:00,345.0,7.41,345.0,9.03,12.33,47.59359,-54.27349
2022-02-02 07:04:00+00:00,353.0,7.31,349.0,8.97,12.33,47.59359,-54.27349
2022-02-02 07:14:00+00:00,356.0,7.48,357.0,8.51,12.25,47.59359,-54.27349
2022-02-02 07:24:00+00:00,347.0,6.81,345.0,8.33,12.25,47.59359,-54.27349
2022-02-02 07:34:00+00:00,353.0,7.71,356.0,8.92,12.25,47.59359,-54.27349
2022-02-02 07:44:00+00:00,356.0,8.48,353.0,9.46,12.25,47.59359,-54.27349
2022-02-02 07:54:00+00:00,358.0,6.31,351.0,7.94,12.25,47.59359,-54.27349
2022-02-02 08:04:00+00:00,351.0,6.37,354.0,8.19,12.25,47.59359,-54.27349
2022-02-02 08:14:01+00:00,354.0,6.21,356.0,7.87,12.25,47.59359,-54.27349
2022-02-02 08:24:01+00:00,358.0,5.69,348.0,7.13,12.25,47.59359,-54.27349
2022-02-02 08:34:01+00:00,354.0,6.58,0.0,7.89,12.25,47.59359,-54.27349
2022-02-02 08:44:01+00:00,356.0,5.34,348.0,7.82,12.25,47.59359,-54.27349
2022-02-02 08:54:01+00:00,357.0,3.73,338.0,5.08,12.25,47.59359,-54.27349
2022-02-02 09:04:01+00:00,352.0,5.56,346.0,6.76,12.25,47.59359,-54.27349
2022-02-02 09:14:01+00:00,342.0,4.78,346.0,5.91,12.25,47.59359,-54.27349
2022-02-02 09:24:01+00:00,353.0,5.22,354.0,6.45,12.25,47.59359,-54.27349
2022-02-02 09:34:01+00:00,7.0,4.92,33.0,6.0,12.25,47.59359,-54.27349
2022-02-02 09:44:01+00:00,40.0,4.88,43.0,6.34,12.25,47.59359,-54.27349
2022-02-02 09:54:01+00:00,17.0,6.19,29.0,7.67,12.25,47.59359,-54.27349
2022-02-02 10:04:01+00:00,7.0,4.57,341.0,7.06,12.25,47.59359,-54.27349
2022-02-02 10:14:01+00:00,29.0,6.65,31.0,8.17,12.25,47.59359,-54.27349
2022-02-02 10:24:01+00:00,42.0,6.04,59.0,8.33,12.25,47.59359,-54.27349
2022-02-02 10:34:01+00:00,23.0,5.82,41.0,7.52,12.25,47.59359,-54.27349
2022-02-02 10:44:01+00:00,347.0,5.57,345.0,6.91,12.25,47.59359,-54.27349
2022-02-02 10:54:01+00:00,22.0,6.1,30.0,8.02,12.25,47.59359,-54.27349
2022-02-02 11:04:01+00:00,40.0,5.71,37.0,7.1,12.25,47.59359,-54.27349
2022-02-02 11:14:00+00:00,7.0,5.61,29.0,6.93,12.25,47.59359,-54.27349
2022-02-02 11:24:00+00:00,57.0,6.14,62.0,9.83,12.25,47.59359,-54.27349
2022-02-02 11:34:00+00:00,53.0,6.44,63.0,10.55,12.25,47.59359,-54.27349
2022-02-02 11:44:00+00:00,22.0,4.78,36.0,6.57,12.25,47.59359,-54.27349
2022-02-02 11:54:00+00:00,339.0,2.62,54.0,4.22,12.25,47.59359,-54.27349
2022-02-02 12:04:00+00:00,337.0,4.83,338.0,5.46,12.25,47.59359,-54.27349
2022-02-02 12:14:00+00:00,337.0,4.48,340.0,5.33,12.33,47.59359,-54.27349
2022-02-02 12:24:00+00:00,345.0,2.81,48.0,4.58,12.33,47.59359,-54.27349
2022-02-02 12:34:00+00:00,5.0,3.12,38.0,5.63,12.33,47.59359,-54.27349
2022-02-02 12:44:00+00:00,32.0,4.27,43.0,5.71,12.33,47.59359,-54.27349
2022-02-02 12:54:00+00:00,345.0,3.88,337.0,5.43,12.33,47.59359,-54.27349
2022-02-02 13:04:00+00:00,349.0,3.96,333.0,4.78,12.33,47.59359,-54.27349
2022-02-02 13:14:00+00:00,49.0,4.23,53.0,4.8,12.81,47.59359,-54.27349
2022-02-02 13:24:00+00:00,6.0,3.19,36.0,5.16,12.81,47.59359,-54.27349
2022-02-02 13:34:00+00:00,349.0,2.73,328.0,3.44,12.81,47.59359,-54.27349
2022-02-02 13:44:00+00:00,44.0,1.59,64.0,3.54,12.81,47.59359,-54.27349
2022-02-02 13:54:00+00:00,46.0,1.95,78.0,2.62,12.81,47.59359,-54.27349
2022-02-02 14:04:00+00:00,40.0,1.46,45.0,1.97,12.81,47.59359,-54.27349
2022-02-02 14:14:01+00:00,135.0,1.77,125.0,2.71,13.6,47.59359,-54.27349
2022-02-02 14:24:01+00:00,68.0,1.89,65.0,3.92,13.6,47.59359,-54.27349
2022-02-02 14:34:01+00:00,46.0,0.95,34.0,1.4,13.6,47.59359,-54.27349
2022-02-02 14:44:01+00:00,56.0,2.37,63.0,3.61,13.6,47.59359,-54.27349
2022-02-02 14:54:01+00:00,72.0,0.86,74.0,1.44,13.6,47.59359,-54.27349
2022-02-02 15:04:01+00:00,126.0,2.1,126.0,2.69,13.6,47.59359,-54.27349
2022-02-02 15:14:01+00:00,174.0,1.02,157.0,1.57,13.53,47.59359,-54.27349
2022-02-02 15:24:01+00:00,197.0,1.29,197.0,1.74,13.53,47.59359,-54.27349
2022-02-02 15:34:01+00:00,215.0,1.14,211.0,2.31,13.53,47.59359,-54.27349
2022-02-02 15:44:01+00:00,304.0,0.7,319.0,1.31,13.53,47.59359,-54.27349
2022-02-02 15:54:01+00:00,177.0,0.21,188.0,0.78,13.53,47.59359,-54.27349
2022-02-02 16:04:01+00:00,196.0,1.34,214.0,2.05,13.53,47.59359,-54.27349
2022-02-02 16:14:01+00:00,237.0,2.1,260.0,2.89,14.16,47.59359,-54.27349
2022-02-02 16:24:01+00:00,268.0,2.64,270.0,3.51,14.16,47.59359,-54.27349
2022-02-02 16:34:01+00:00,206.0,2.82,214.0,3.92,14.16,47.59359,-54.27349
2022-02-02 16:44:01+00:00,215.0,3.87,213.0,4.52,14.16,47.59359,-54.27349
2022-02-02 16:54:01+00:00,219.0,4.13,220.0,5.46,14.16,47.59359,-54.27349
2022-02-02 17:04:01+00:00,224.0,3.45,224.0,4.23,14.16,47.59359,-54.27349
2022-02-02 17:14:01+00:00,216.0,4.02,209.0,4.94,13.6,47.59359,-54.27349
2022-02-02 17:24:01+00:00,204.0,3.4,206.0,4.24,13.6,47.59359,-54.27349
2022-02-02 17:34:01+00:00,216.0,3.89,220.0,4.78,13.6,47.59359,-54.27349
2022-02-02 17:44:01+00:00,215.0,5.36,219.0,6.68,13.6,47.59359,-54.27349
2022-02-02 17:54:01+00:00,233.0,4.55,240.0,5.32,13.6,47.59359,-54.27349
2022-02-02 18:04:01+00:00,220.0,4.8,227.0,5.95,13.6,47.59359,-54.27349
2022-02-02 18:14:01+00:00,215.0,5.08,213.0,6.42,14.4,47.59359,-54.27349
2022-02-02 18:24:01+00:00,225.0,6.67,230.0,7.72,14.4,47.59359,-54.27349
2022-02-02 18:34:01+00:00,211.0,5.85,208.0,7.16,14.4,47.59359,-54.27349
2022-02-02 18:44:01+00:00,225.0,6.42,226.0,7.83,14.4,47.59359,-54.27349
2022-02-02 18:54:01+00:00,224.0,6.95,224.0,7.97,14.4,47.59359,-54.27349
2022-02-02 19:04:01+00:00,222.0,6.7,228.0,8.14,14.4,47.59359,-54.27349
2022-02-02 19:14:01+00:00,219.0,6.35,216.0,7.86,13.84,47.59359,-54.27349
2022-02-02 19:24:01+00:00,227.0,6.0,233.0,8.2,13.84,47.59359,-54.27349
2022-02-02 19:34:01+00:00,222.0,5.19,228.0,6.41,13.84,47.59359,-54.27349
2022-02-02 19:44:01+00:00,217.0,5.34,225.0,6.74,13.84,47.59359,-54.27349
2022-02-02 19:54:01+00:00,215.0,5.48,242.0,7.79,13.84,47.59359,-54.27349
2022-02-02 20:04:01+00:00,206.0,6.08,229.0,9.0,13.84,47.59359,-54.27349
2022-02-02 20:14:00+00:00,212.0,7.18,214.0,8.54,13.13,47.59359,-54.27349
2022-02-02 20:24:00+00:00,221.0,5.9,243.0,8.89,13.13,47.59359,-54.27349
2022-02-02 20:34:00+00:00,224.0,7.42,230.0,9.29,13.13,47.59359,-54.27349
2022-02-02 20:44:00+00:00,208.0,4.82,223.0,6.49,13.13,47.59359,-54.27349
2022-02-02 20:54:00+00:00,225.0,6.26,235.0,8.65,13.13,47.59359,-54.27349
2022-02-02 21:04:00+00:00,218.0,5.59,224.0,6.61,13.13,47.59359,-54.27349
2022-02-02 21:14:00+00:00,220.0,4.96,229.0,7.75,12.57,47.59359,-54.27349
2022-02-02 21:24:00+00:00,199.0,6.31,197.0,7.35,12.57,47.59359,-54.27349
2022-02-02 21:34:00+00:00,215.0,6.48,213.0,8.12,12.57,47.59359,-54.27349
2022-02-02 21:44:00+00:00,214.0,7.04,211.0,7.98,12.57,47.59359,-54.27349
2022-02-02 21:54:00+00:00,219.0,6.39,240.0,8.26,12.57,47.59359,-54.27349
2022-02-02 22:04:00+00:00,210.0,5.66,221.0,7.43,12.57,47.59359,-54.27349
2022-02-02 22:14:00+00:00,206.0,6.22,216.0,8.05,12.49,47.59359,-54.27349
2022-02-02 22:24:00+00:00,225.0,6.24,242.0,9.39,12.49,47.59359,-54.27349
2022-02-02 22:34:00+00:00,218.0,8.03,219.0,10.45,12.49,47.59359,-54.27349
2022-02-02 22:44:00+00:00,208.0,6.83,213.0,8.29,12.49,47.59359,-54.27349
2022-02-02 22:54:00+00:00,232.0,8.36,234.0,9.9,12.49,47.59359,-54.27349
2022-02-02 23:04:00+00:00,230.0,7.28,228.0,9.18,12.49,47.59359,-54.27349
2022-02-02 23:14:00+00:00,220.0,8.46,215.0,10.08,12.49,47.59359,-54.27349
2022-02-02 23:24:00+00:00,228.0,7.22,239.0,8.83,12.49,47.59359,-54.27349
2022-02-02 23:34:00+00:00,233.0,10.36,240.0,14.34,12.49,47.59359,-54.27349
2022-02-02 23:44:00+00:00,231.0,9.96,246.0,13.07,12.49,47.59359,-54.27349
2022-02-02 23:54:00+00:00,224.0,10.36,232.0,14.13,12.49,47.59359,-54.27349
